SIRION PATHFINDER-2 (43759 NORAD) Tracking and Keplerian Element Data

This shows tracking and keplerian element data for the satellite.

Feedback or suggestion? Click here.




ElementValue
Catalog43759
NameSIRION PATHFINDER-2
Epoch Orbit3309
Epoch Day194.2804123
Epoch Year2019
RAAN265.9635
Inclination97.7441
Eccentricity0.0013052
Argument of Perigee234.7537
Mean Anonmoly125.2462
Mean Motion14.95136409
Decay Rate5.47E-06
L11 43759U 18099B 19194.28041230 .00000547 00000-0 55055-4 0 9999
L22 43759 97.7441 265.9635 0013052 234.7537 125.2462 14.95136409 33099

Live tracking and technical data element details for SIRION PATHFINDER-2 (NORAD 43759). SIRION PATHFINDER-2 can be tracked NOW for your location showing map with azimuth and elevation plus other details from your city location.

Track the satellite on the map from your city or location and see movement details for azimuth, elevation, latitude, longitude, range, height, and movement on the map or in text.







IsCatalogInMostPopularTable: catalog: 43759, numindb: 120
Update: records affected: 1



GetName: 43759 SIRION PATHFINDER-2

Hit Count: updated at: Wed, 17 Jul 2019 09:33:22 GMT